This is the latest recevied weather packets stored in our database for station/object JR5VPD-10. If no packets are shown the sender has not sent any weather packets the latest 10 day(s).
| Time | Temp. | Humidity | Pressure | Rain* | Wind** | Luminosity | Snow |
|---|---|---|---|---|---|---|---|
| 1777913866 | 18.89° C | 53% | 1015.8 hPa | 0 mm | 0 m/s | - | - |
| 1777912066 | 18.89° C | 53% | 1015.7 hPa | 0 mm | 0 m/s | - | - |
| 1777910266 | 18.89° C | 53% | 1015.8 hPa | 0 mm | 0 m/s | - | - |
| 1777908466 | 18.89° C | 52% | 1015.8 hPa | 0 mm | 0 m/s | - | - |
| 1777906666 | 18.89° C | 53% | 1015.7 hPa | 0 mm | 0 m/s | - | - |
| 1777904866 | 18.89° C | 53% | 1015.8 hPa | 0 mm | 0 m/s | - | - |
| 1777903066 | 18.89° C | 53% | 1015.3 hPa | 0 mm | 0 m/s | - | - |
| 1777901266 | 18.89° C | 53% | 1015 hPa | 0 mm | 0 m/s | - | - |
| 1777899466 | 20° C | 54% | 1014.9 hPa | 0 mm | 0 m/s | - | - |
| 1777897666 | 20° C | 54% | 1014.5 hPa | 0 mm | 0 m/s | - | - |
| 1777895866 | 20° C | 54% | 1013.9 hPa | 0 mm | 0 m/s | - | - |
| 1777894066 | 20° C | 53% | 1013.3 hPa | 0 mm | 0 m/s | - | - |
| 1777892266 | 20° C | 53% | 1012.5 hPa | 0 mm | 0 m/s | - | - |
| 1777890466 | 20° C | 52% | 1011.7 hPa | 0 mm | 0 m/s | - | - |
| 1777888666 | 20° C | 53% | 1011 hPa | 0 mm | 0 m/s | - | - |
| 1777886866 | 20° C | 52% | 1010.4 hPa | 0 mm | 0 m/s | - | - |
| 1777885066 | 20° C | 52% | 1009.7 hPa | 0 mm | 0 m/s | - | - |
| 1777883266 | 20.56° C | 52% | 1009.4 hPa | 0 mm | 0 m/s | - | - |
| 1777881466 | 20.56° C | 52% | 1008.6 hPa | 0 mm | 0 m/s | - | - |
| 1777879666 | 20.56° C | 50% | 1008 hPa | 0 mm | 0 m/s | - | - |
| 1777877866 | 20.56° C | 49% | 1007.1 hPa | 0 mm | 0 m/s | - | - |
| 1777876066 | 20.56° C | 49% | 1006.8 hPa | 0 mm | 0 m/s | - | - |
| 1777874266 | 20.56° C | 50% | 1006.2 hPa | 0 mm | 0 m/s | - | - |
| 1777872466 | 20° C | 46% | 1006 hPa | 0 mm | 0 m/s | - | - |
| 1777870666 | 20.56° C | 52% | 1006 hPa | 0 mm | 0 m/s | - | - |
* Rain latest hour (hover to see other rain measurements)
** Current wind speed in m/s (hover to see current wind gust speed)